Weather History for Rexburg, ID

Change the Weather History Date:

Thursday, March 1, 2012

  Actual Average Record
Temperature  
Mean Temperature 23 °F 27 °F  
Max Temperature 28 °F 38 °F 43 °F (2000)
Min Temperature 17 °F 17 °F -1 °F (2002)
Degree Days  
Heating Degree Days 42 38  
Month to date heating degree days 42 38  
Since 1 July heating degree days 5483 6011  
Cooling Degree Days 0 0  
Month to date cooling degree days 0 0  
Year to date cooling degree days 0 0  
Moisture  
Dew Point 18 °F    
Average Humidity 82    
Maximum Humidity 96    
Minimum Humidity 68    
Precipitation  
Precipitation 0.10 in 0.03 in 0.25 in (2005)
Month to date precipitation 0.10 0.03  
Year to date precipitation 1.82 1.60  
Sea Level Pressure  
Sea Level Pressure 29.85 in    
Wind  
Wind Speed 8 mph (SSW)    
Max Wind Speed 23 mph    
Max Gust Speed 29 mph    
Visibility 5 miles    
Events Fog , Snow    
T = Trace of Precipitation, MM = Missing Value Source: NWS Daily Summary

Daily Weather History Graph

Daily Weather History Graph

Search for Another Location

Airport:

Trip Planner

Search our weather history database for the weather conditions in past years. The results will help you decide how hot, cold, wet, or windy it might be!

Date:

Astronomy

Mar. 01, 2012 Rise Set
Actual Time 7:02 AM MST 6:16 PM MST
Civil Twilight 6:34 AM MST 6:45 PM MST
Nautical Twilight 6:00 AM MST 7:18 PM MST
Astronomical Twilight 5:27 AM MST 7:52 PM MST
Moon 11:30 AM MST (3/1) 2:14 AM MST (3/1)
Length of Visible Light 12h 11m
Length of Day
11h 13m
First Quarter, 57% of the Moon is Illuminated
Mar 1
First Quarter
Mar 8
Full
Mar 14
Last Quarter
Mar 22
New
Mar 30
First Quarter

Hourly Weather History & Observations

Time (MST) Temp. Windchill Dew Point Humidity Pressure Visibility Wind Dir Wind Speed Gust Speed Precip Events Conditions
12:53 AM 18.0 °F 9.8 °F 14.0 °F 84% 29.91 in 10.0 mi SW 5.8 mph - N/A   Clear
2:53 AM 19.0 °F 12.3 °F 12.9 °F 77% 29.93 in 10.0 mi SW 4.6 mph - N/A   Scattered Clouds
3:53 AM 19.9 °F 13.4 °F 12.9 °F 74% 29.91 in 10.0 mi SW 4.6 mph - N/A   Mostly Cloudy
5:15 AM 21.2 °F 13.6 °F 12.2 °F 68% 29.79 in 10.0 mi Variable 5.8 mph - N/A   Overcast
5:53 AM 19.9 °F 14.9 °F 14.0 °F 78% 29.91 in 10.0 mi NNW 3.5 mph - N/A   Overcast
6:09 AM 19.4 °F 12.8 °F 15.8 °F 86% 29.79 in 2.0 mi North 4.6 mph - 0.00 in Snow Light Snow
6:15 AM 19.4 °F 14.3 °F 15.8 °F 86% 29.79 in 1.5 mi North 3.5 mph - 0.00 in Snow Light Snow
6:30 AM 19.4 °F 14.3 °F 15.8 °F 86% 29.80 in 0.8 mi Variable 3.5 mph - 0.01 in Snow Light Snow
6:37 AM 19.4 °F 10.4 °F 17.6 °F 93% 29.79 in 0.8 mi SW 6.9 mph - 0.01 in Snow Light Snow
7:00 AM 19.4 °F 11.5 °F 19.4 °F 100% 29.79 in 1.2 mi SW 5.8 mph - 0.00 in Snow Light Snow
7:24 AM 19.4 °F 12.8 °F 17.6 °F 93% 29.78 in 0.5 mi SSW 4.6 mph - 0.01 in Fog , Snow Light Snow
7:37 AM 19.4 °F 11.5 °F 19.4 °F 100% 29.78 in 0.2 mi South 5.8 mph - 0.02 in Fog , Snow Heavy Snow
7:53 AM 19.9 °F 11.1 °F 18.0 °F 92% 29.90 in 0.5 mi South 6.9 mph - 0.03 in Fog , Snow Snow
8:03 AM 19.4 °F 8.6 °F 17.6 °F 93% 29.78 in 0.2 mi South 9.2 mph - 0.01 in Fog , Snow Heavy Snow
8:26 AM 19.4 °F 7.2 °F 17.6 °F 93% 29.76 in 0.5 mi South 11.5 mph - 0.02 in Fog , Snow Snow
8:41 AM 19.4 °F 6.6 °F 17.6 °F 93% 29.76 in 0.8 mi South 12.7 mph 18.4 mph 0.02 in Snow Light Snow
8:49 AM 21.2 °F 8.9 °F 17.6 °F 86% 29.76 in 1.2 mi South 12.7 mph - 0.02 in Snow Light Snow
9:26 AM 23.0 °F 10.1 °F 19.4 °F 86% 29.76 in 2.5 mi SSW 15.0 mph - 0.00 in Snow Light Snow
9:34 AM 23.0 °F 8.3 °F 19.4 °F 86% 29.76 in 4.0 mi SW 19.6 mph 26.5 mph 0.00 in   Overcast
9:53 AM 23.0 °F 8.7 °F 18.0 °F 81% 29.89 in 5.0 mi SW 18.4 mph 26.5 mph 0.00 in   Haze
10:34 AM 21.2 °F 7.3 °F 17.6 °F 86% 29.77 in 1.8 mi SW 16.1 mph 24.2 mph 0.00 in Snow Light Snow
10:39 AM 23.0 °F 8.3 °F 19.4 °F 86% 29.77 in 3.0 mi SW 19.6 mph 25.3 mph 0.00 in   Overcast
10:53 AM 23.0 °F 9.2 °F 18.0 °F 81% 29.90 in 7.0 mi SW 17.3 mph 27.6 mph 0.00 in   Overcast
11:53 AM 24.1 °F 10.6 °F 19.0 °F 81% 29.89 in 9.0 mi SW 17.3 mph 25.3 mph N/A   Overcast
1:12 PM 26.6 °F 14.3 °F 17.6 °F 69% 29.76 in 10.0 mi SSW 16.1 mph 25.3 mph N/A   Overcast
1:35 PM 26.6 °F 14.3 °F 17.6 °F 69% 29.76 in 10.0 mi SSW 16.1 mph 24.2 mph N/A   Overcast
1:49 PM 26.6 °F 14.3 °F 17.6 °F 69% 29.76 in 10.0 mi SSW 16.1 mph 21.9 mph N/A   Overcast
1:53 PM 27.0 °F 15.2 °F 18.0 °F 69% 29.87 in 10.0 mi SSW 15.0 mph 21.9 mph N/A   Overcast
2:53 PM 27.0 °F 15.6 °F 19.0 °F 72% 29.88 in 10.0 mi SSW 13.8 mph 24.2 mph N/A   Scattered Clouds
4:53 PM 25.0 °F 14.2 °F 19.9 °F 81% 29.90 in 10.0 mi SW 11.5 mph - N/A   Overcast
5:53 PM 24.1 °F 18.2 °F 21.0 °F 88% 29.92 in 10.0 mi SSW 4.6 mph - 0.00 in   Overcast
6:53 PM 23.0 °F - 21.0 °F 92% 29.93 in 10.0 mi Calm Calm - 0.00 in   Overcast
7:31 PM 23.0 °F 18.4 °F 19.4 °F 86% 29.83 in 10.0 mi NE 3.5 mph - N/A   Overcast
7:53 PM 24.1 °F - 21.0 °F 88% 29.96 in 5.0 mi Calm Calm - 0.00 in Snow Light Snow
8:03 PM 24.8 °F 20.5 °F 21.2 °F 86% 29.83 in 2.5 mi NE 3.5 mph - 0.00 in Snow Light Snow
8:50 PM 23.0 °F - 21.2 °F 93% 29.84 in 4.0 mi Calm Calm - 0.01 in Snow Light Snow
8:53 PM 23.0 °F - 21.0 °F 92% 29.97 in 6.0 mi Calm Calm - 0.01 in Snow Light Snow
9:01 PM 23.0 °F - 21.2 °F 93% 29.85 in 8.0 mi Calm Calm - 0.00 in Snow Light Snow
9:23 PM 23.0 °F - 21.2 °F 93% 29.86 in 1.8 mi Calm Calm - 0.00 in Snow Light Snow
9:50 PM 23.0 °F 17.0 °F 21.2 °F 93% 29.87 in 2.5 mi North 4.6 mph - 0.01 in Snow Light Snow
9:53 PM 23.0 °F 15.8 °F 21.0 °F 92% 30.00 in 2.5 mi North 5.8 mph - 0.01 in Snow Light Snow
10:10 PM 21.2 °F 9.5 °F 19.4 °F 93% 29.89 in 0.8 mi NNE 11.5 mph - 0.01 in Snow Light Snow
10:25 PM 21.2 °F 13.6 °F 19.4 °F 93% 29.88 in 2.0 mi ENE 5.8 mph - 0.01 in Snow Light Snow
10:29 PM 21.2 °F 13.6 °F 19.4 °F 93% 29.88 in 4.0 mi ENE 5.8 mph - 0.01 in Snow Light Snow
10:44 PM 21.2 °F 16.4 °F 19.4 °F 93% 29.89 in 10.0 mi NE 3.5 mph - 0.01 in   Overcast
10:53 PM 21.0 °F 16.2 °F 19.0 °F 92% 30.02 in 10.0 mi NNE 3.5 mph - 0.01 in   Overcast
11:53 PM 19.0 °F - 17.1 °F 92% 30.04 in 10.0 mi Calm Calm - N/A   Overcast